ASTRA 1G 1 25071U 97076A 21060.68066488 .00000110 00000-0 00000-0 0 9991 2 25071 5.1806 71.6337 0003958 272.6458 79.8468 1.00268838 85127 SL-12 R/B(2) 1 25074U 97076D 21059.05546858 -.00000042 00000-0 00000-0 0 9992 2 25074 10.5607 156.5568 4394736 135.3171 239.1942 1.71946622145910